Content
SEND FEEDBACK

Daily
Averages
Monthly
Summary
United Kingdom

EXETER, ENGLAND


Home > Europe > United Kingdom > England
Elevation: 98 feet     Latitude: 50 44N     Longitude: 003 25E

WEATHER
 
SELECT A DAY
Number of Records: 278,555;   Date Range: 7/1/96 - 11/22/14
 
SHARE

PRINT THIS DATA

[ ← Previous Day ]
WEATHER ALMANAC - OCTOBER 5, 2013
[ Next Day → ]
[ °C ]   °F
Weather ElementAverageHighLow
Temperature59.5 °F66.2 °F (1:30 pm)53.6 °F (10:30 pm)
Dewpoint54.7 °F59 °F (10:00 am)51.8 °F (6:00 pm)
Humidity85 %100 % (2:00 am)59 % (2:00 pm)
Barometer30.09 in30.24 in (11:00 pm)29.98 in (1:00 am)
Wind Speed5.5 mph11.5 mph (4:30 pm)
Weather ElementAverage
Visibility7.1 mi
Wind DirectionWSW (261.1 °)

Weather ElementTotal
Precipitation---
Heating Degree Days5.1 (Base 65)
Growing Degree Days9.9 (Base 50)
Averaged from 46 records on October 5, 2013
WEATHER CONDITIONS BREAKOUT
WIND DIRECTION BREAKOUT
WEATHER BY HOUR - OCTOBER 5, 2013
[ °C ]   °F
Local TimeTemperatureDewpointHumidityBarometerVisibilityWind DirectionWind SpeedGust SpeedPrecipitationEventsConditions
1:00 AM57.2 °F55.4 °F94 %29.98 inVariable1.2 mphClear
2:00 AM56.0 °F55.0 °F95 %29.99 in19.0 miWNW (290°)4.6 mphMostly Cloudy
2:00 AM55.4 °F55.4 °F100 %29.98 inWNW (290°)4.6 mphClear
2:30 AM59.0 °F57.2 °F94 %29.98 in6.2 miSW (230°)3.5 mph
3:00 AM57.2 °F55.4 °F94 %29.98 in6.2 miWSW (240°)3.5 mph
3:30 AM55.4 °F55.4 °F100 %29.98 in6.2 miVariable3.5 mph
4:00 AM55.4 °F53.6 °F94 %29.98 in5.0 miSW (220°)1.2 mph
4:30 AM55.4 °F55.4 °F100 %29.98 in4.3 miCalm
5:00 AM57.2 °F55.4 °F94 %29.98 inCalmClear
6:00 AM55.4 °F55.4 °F100 %29.98 in6.2 miWest (280°)4.6 mphMostly Cloudy
6:30 AM55.4 °F55.4 °F100 %30.01 in6.2 miWNW (300°)4.6 mphMostly Cloudy
7:00 AM55.4 °F55.4 °F100 %30.01 in6.2 miWNW (300°)4.6 mphMostly Cloudy
7:30 AM55.4 °F53.6 °F94 %30.01 in5.0 miWest (260°)2.3 mphFogFog
8:00 AM55.0 °F54.0 °F97 %30.04 in0.0 miSouth (190°)3.5 mphFogPatches of Fog
8:00 AM55.4 °F53.6 °F94 %30.01 inSouth (190°)3.5 mphFogPatches of Fog
9:00 AM57.2 °F55.4 °F94 %30.04 in6.2 miCalmMostly Cloudy
9:30 AM57.2 °F55.4 °F94 %30.04 in6.2 miWest (280°)5.8 mphScattered Clouds
10:00 AM59.0 °F59.0 °F100 %30.06 in6.2 miWest (270°)9.2 mphScattered Clouds
10:30 AM60.8 °F59.0 °F94 %30.06 in6.2 miWNW (290°)8.1 mphMostly Cloudy
11:00 AM60.8 °F57.2 °F88 %30.06 in6.2 miWNW (300°)9.2 mphMostly Cloudy
11:30 AM62.6 °F57.2 °F82 %30.06 in6.2 miWNW (300°)8.1 mphMostly Cloudy
12:00 PM62.6 °F57.2 °F82 %30.09 in6.2 miNW (310°)8.1 mphMostly Cloudy
12:30 PM62.6 °F55.4 °F77 %30.09 in6.2 miNW (310°)5.8 mphMostly Cloudy
1:00 PM64.4 °F57.2 °F77 %30.09 in6.2 miNW (310°)4.6 mphMostly Cloudy
1:30 PM66.2 °F57.2 °F73 %30.09 in6.2 miWNW (290°)6.9 mphMostly Cloudy
2:00 PM66.0 °F55.0 °F59 %30.11 in25.0 miWNW (300°)6.9 mphPartly Cloudy
2:00 PM66.2 °F55.4 °F68 %30.09 in6.2 miNW (310°)5.8 mphMostly Cloudy
3:00 PM64.4 °F55.4 °F73 %30.09 in6.2 miNNW (330°)8.1 mphMostly Cloudy
3:30 PM64.4 °F55.4 °F73 %30.12 in6.2 miNNW (340°)10.4 mphMostly Cloudy
4:00 PM66.2 °F55.4 °F68 %30.12 in6.2 miNNW (340°)10.4 mphMostly Cloudy
4:30 PM64.4 °F55.4 °F73 %30.12 in6.2 miNNW (340°)11.5 mphMostly Cloudy
5:00 PM64.4 °F53.6 °F68 %30.12 in6.2 miNNW (340°)10.4 mphMostly Cloudy
5:30 PM64.4 °F53.6 °F68 %30.12 in6.2 miNNW (340°)9.2 mphMostly Cloudy
6:00 PM64.4 °F51.8 °F64 %30.15 in6.2 miNNW (340°)9.2 mphScattered Clouds
6:30 PM62.6 °F51.8 °F68 %30.15 inNorth (350°)9.2 mphClear
7:00 PM62.6 °F51.8 °F68 %30.18 in6.2 miNNW (340°)8.1 mphMostly Cloudy
7:30 PM60.8 °F53.6 °F77 %30.18 inNNW (340°)8.1 mphClear
8:00 PM60.0 °F53.0 °F71 %30.20 in17.0 miNNW (340°)3.5 mphClear
8:00 PM60.8 °F53.6 °F77 %30.18 inNNW (330°)4.6 mphClear
8:30 PM59.0 °F53.6 °F82 %30.18 inNNW (340°)3.5 mphClear
9:00 PM57.2 °F53.6 °F88 %30.21 inNNW (340°)3.5 mphClear
9:30 PM57.2 °F51.8 °F82 %30.21 inNW (320°)3.5 mphClear
10:00 PM55.4 °F51.8 °F88 %30.21 inWNW (300°)2.3 mphClear
10:30 PM53.6 °F51.8 °F94 %30.21 in6.2 miWest (280°)5.8 mphPartly Cloudy
11:00 PM53.6 °F51.8 °F94 %30.24 in6.2 miWNW (300°)4.6 mphPartly Cloudy
11:30 PM53.6 °F51.8 °F94 %30.24 in6.2 miVariable1.2 mphPartly Cloudy
Hourly data recorded from LFQQ, located miles away from Exeter, England







STORIES FROM OUR PARTNERS